EW8163 Weather Reports


Display with metric or nautical units.
time (UTC)temp
F
wind
direction
speed
MPH
gust
MPH
rain 1hr
in
rain 24hr
in
rain mn
in
humidity
%
barometer
mb
20260505060406 41 180 0.0 0.0 0.00 0.01 0.01 92 1014.2
20260505055406 41 180 0.0 0.0 0.00 0.01 0.01 92 1014.2
20260505055307 41 180 0.0 0.0 0.00 0.01 0.01 93 1014.3
20260505052406 41 180 0.0 0.0 0.00 0.01 0.01 92 1014.2
20260505051406 41 180 0.0 0.0 0.00 0.01 0.01 92 1014.3
20260505051309 41 180 0.0 0.0 0.00 0.01 0.01 92 1014.3
20260505041207 42 180 0.0 0.0 0.00 0.01 0.01 88 1014.4
20260505035206 42 180 0.0 0.0 0.00 0.01 0.01 88 1014.4
20260505035107 42 180 0.0 0.0 0.00 0.01 0.01 88 1014.4
20260505034107 42 180 0.0 0.0 0.00 0.01 0.01 86 1014.4
20260505032108 42 255 0.0 0.0 0.00 0.01 0.01 85 1014.2
20260505031108 42 270 0.0 1.0 0.00 0.01 0.01 86 1014.3
20260505031007 42 263 0.0 2.0 0.00 0.01 0.01 87 1014.1
20260505030006 41 315 0.0 0.0 0.00 0.01 0.01 90 1014.1
20260505025006 41 360 0.0 0.0 0.00 0.01 0.01 92 1014.0
20260505024006 42 360 0.0 0.0 0.00 0.01 0.01 90 1013.8
20260505023907 42 360 0.0 0.0 0.00 0.01 0.01 91 1013.8
20260505022906 42 360 0.0 0.0 0.00 0.01 0.01 91 1013.8
20260505021907 42 360 0.0 0.0 0.00 0.01 0.01 91 1013.9
20260505020905 42 360 0.0 2.0 0.00 0.01 0.01 91 1014.0
20260505015907 43 148 1.0 2.0 0.00 0.01 0.01 89 1014.1
20260505014005 43 270 0.0 0.0 0.00 0.01 0.01 87 1014.2
20260505013007 43 270 0.0 2.0 0.00 0.01 0.01 89 1014.4
20260505012105 43 86 0.0 2.0 0.00 0.01 0.01 90 1014.4
20260505011105 42 315 0.0 0.0 0.00 0.01 0.01 91 1014.5
20260505010106 42 360 0.0 2.0 0.00 0.01 0.01 92 1014.4
20260505010006 42 360 0.0 0.0 0.00 0.01 0.01 92 1014.4
20260505005104 42 360 0.0 1.0 0.00 0.01 0.01 93 1014.6
20260505004107 42 360 0.0 1.0 0.00 0.01 0.01 93 1014.6
20260505002108 42 90 1.0 3.0 0.00 0.01 0.01 91 1014.7
20260505001105 42 112 1.0 3.0 0.00 0.01 0.01 92 1014.5
20260505000107 43 360 0.0 0.0 0.00 0.01 0.01 92 1014.6
20260504235106 42 353 0.0 1.0 0.00 0.01 0.01 93 1014.4
20260504234106 42 90 0.0 0.0 0.00 0.01 0.01 94 1014.4
20260504233106 42 103 0.0 1.0 0.00 0.01 0.01 93 1014.5
20260504231204 42 90 0.0 0.0 0.00 0.01 0.01 93 1014.6
20260504230304 42 360 0.0 2.0 0.00 0.01 0.01 92 1014.7
20260504230207 42 360 0.0 1.0 0.00 0.01 0.01 92 1014.7
20260504225204 42 351 0.0 3.0 0.00 0.01 0.01 91 1014.7
20260504224207 42 67 0.0 0.0 0.00 0.01 0.01 91 1014.8
20260504223305 43 85 0.0 2.0 0.00 0.01 0.01 91 1014.8
20260504222305 42 340 0.0 3.0 0.00 0.01 0.01 93 1014.7
20260504221404 42 132 1.0 3.0 0.00 0.01 0.01 93 1014.8
20260504214507 42 64 0.0 1.0 0.00 0.01 0.01 92 1015.1
20260504212606 42 67 0.0 0.0 0.00 0.01 0.01 91 1015.3
20260504211605 42 329 0.0 2.0 0.00 0.01 0.01 92 1015.3
20260504210506 42 112 0.0 0.0 0.00 0.01 0.01 91 1015.1
20260504205505 42 116 1.0 2.0 0.00 0.01 0.01 91 1015.1
20260504204505 42 337 0.0 1.0 0.00 0.01 0.01 92 1015.1
20260504203507 42 90 0.0 1.0 0.00 0.01 0.01 90 1015.0
20260504201506 43 28 1.0 2.0 0.00 0.01 0.01 91 1014.9
20260504201406 43 145 0.0 2.0 0.00 0.01 0.01 92 1014.9
20260504201306 42 8 1.0 4.0 0.00 0.01 0.01 92 1015.1
20260504200305 42 112 0.0 1.0 0.00 0.01 0.01 94 1014.9
20260504195308 41 347 0.0 2.0 0.00 0.01 0.01 95 1014.8
20260504194306 41 101 1.0 4.0 0.00 0.01 0.01 95 1014.9
20260504193405 41 59 0.0 3.0 0.00 0.01 0.01 93 1014.9
20260504193304 42 360 0.0 0.0 0.00 0.01 0.01 93 1014.9
20260504192306 42 327 0.0 2.0 0.00 0.01 0.01 93 1014.9
20260504191308 42 2 0.0 1.0 0.00 0.01 0.01 94 1014.9
20260504190305 42 354 0.0 1.0 0.00 0.01 0.01 94 1014.8
20260504185404 42 20 0.0 1.0 0.00 0.01 0.01 94 1014.9
20260504184406 41 360 0.0 0.0 0.00 0.01 0.01 95 1014.8
20260504182505 41 45 0.0 0.0 0.00 0.01 0.01 94 1014.8
20260504182405 41 45 0.0 0.0 0.00 0.01 0.01 94 1014.8
20260504181406 41 135 0.0 0.0 0.00 0.01 0.01 93 1014.9
20260504180404 42 151 0.0 2.0 0.00 0.01 0.01 94 1015.0
20260504180305 42 156 0.0 2.0 0.00 0.01 0.01 94 1014.9
20260504175304 42 94 0.0 2.0 0.00 0.01 0.01 93 1014.8
20260504174306 43 64 1.0 4.0 0.00 0.01 0.01 93 1014.8
20260504173405 42 26 0.0 1.0 0.00 0.01 0.01 94 1014.7
20260504173306 42 90 0.0 1.0 0.00 0.01 0.01 94 1014.7
20260504171307 42 22 0.0 0.0 0.00 0.01 0.01 93 1014.5
20260504170320 42 22 0.0 0.0 0.00 0.01 0.01 93 1014.4
20260504160404 41 90 0.0 0.0 0.01 0.01 0.01 95 1014.0
20260504160307 41 90 0.0 0.0 0.01 0.01 0.01 95 1014.0
20260504150605 40 45 0.0 0.0 0.00 0.00 0.00 95 1014.3
20260504150505 40 45 0.0 0.0 0.00 0.00 0.00 94 1014.2
20260504140704 40 337 0.0 0.0 0.00 0.00 0.00 96 1014.1
20260504081005 46 315 0.0 0.0 0.00 0.00 0.00 83 1014.5